Time,TemperatureF,DewpointF,PressureIn,WindDirection,WindDirectionDegrees,WindSpeedMPH,WindSpeedGustMPH,Humidity,HourlyPrecipIn,Conditions,Clouds,dailyrainin,SolarRadiationWatts/m^2,SoftwareType,DateUTC
2013-03-18 00:03:00,50.0,47.0,-100.00,NW,319,0.0,4.0,90,0.00,,,0.26,0.000000,,2013-03-18 10:03:00,
2013-03-18 00:12:00,50.0,47.0,-100.00,NW,319,0.0,4.0,90,0.00,,,0.26,0.000000,,2013-03-18 10:12:00,
2013-03-18 00:23:00,50.0,47.0,-100.00,NW,319,0.0,4.0,90,0.00,,,0.26,0.000000,,2013-03-18 10:23:00,
2013-03-18 00:32:00,50.0,47.0,-100.00,NW,319,0.0,4.0,90,0.00,,,0.26,0.000000,,2013-03-18 10:32:00,
2013-03-18 01:03:00,46.0,43.0,-100.00,NW,321,5.0,9.0,90,0.00,,,0.25,0.000000,,2013-03-18 11:03:00,
2013-03-18 01:12:00,46.0,43.0,-100.00,NW,321,5.0,9.0,90,0.00,,,0.25,0.000000,,2013-03-18 11:12:00,
2013-03-18 01:22:00,46.0,43.0,-100.00,NW,321,5.0,9.0,90,0.00,,,0.25,0.000000,,2013-03-18 11:22:00,
2013-03-18 01:31:00,46.0,43.0,-100.00,NW,321,5.0,9.0,90,0.00,,,0.25,0.000000,,2013-03-18 11:31:00,
2013-03-18 02:02:00,44.0,42.0,-100.00,West,274,3.0,8.0,93,0.00,,,0.25,0.000000,,2013-03-18 12:02:00,
2013-03-18 02:12:00,44.0,42.0,-100.00,West,274,3.0,8.0,93,0.00,,,0.25,0.000000,,2013-03-18 12:12:00,
2013-03-18 02:22:00,44.0,42.0,-100.00,West,274,3.0,8.0,93,0.00,,,0.25,0.000000,,2013-03-18 12:22:00,
2013-03-18 02:32:00,44.0,42.0,-100.00,West,274,3.0,8.0,93,0.00,,,0.25,0.000000,,2013-03-18 12:32:00,
2013-03-18 03:02:00,48.0,46.0,-100.00,SW,216,3.0,6.0,94,0.00,,,-99.99,0.000000,,2013-03-18 13:02:00,
2013-03-18 03:12:00,48.0,46.0,-100.00,SW,216,3.0,6.0,94,0.00,,,-99.99,0.000000,,2013-03-18 13:12:00,
2013-03-18 03:22:00,48.0,46.0,-100.00,SW,216,3.0,6.0,94,0.00,,,-99.99,0.000000,,2013-03-18 13:22:00,
2013-03-18 03:32:00,48.0,46.0,-100.00,SW,216,3.0,6.0,94,0.00,,,-99.99,0.000000,,2013-03-18 13:32:00,
2013-03-18 03:52:00,47.0,46.0,-100.00,SSW,203,0.0,8.0,96,0.01,,,0.24,0.000000,,2013-03-18 13:52:00,
2013-03-18 04:02:00,47.0,46.0,-100.00,SSW,203,0.0,8.0,96,0.01,,,0.24,0.000000,,2013-03-18 14:02:00,
2013-03-18 04:12:00,47.0,46.0,-100.00,SSW,203,0.0,8.0,96,0.01,,,0.24,0.000000,,2013-03-18 14:12:00,
2013-03-18 04:22:00,47.0,46.0,-100.00,SSW,203,0.0,8.0,96,0.01,,,0.24,0.000000,,2013-03-18 14:22:00,
2013-03-18 04:32:00,47.0,46.0,-100.00,SSW,203,0.0,8.0,96,0.01,,,0.24,0.000000,,2013-03-18 14:32:00,
2013-03-18 05:02:00,48.0,47.0,-100.00,West,268,1.0,3.0,97,0.00,,,0.23,0.000000,,2013-03-18 15:02:00,
2013-03-18 05:12:00,48.0,47.0,-100.00,West,268,1.0,3.0,97,0.00,,,0.23,0.000000,,2013-03-18 15:12:00,
2013-03-18 05:22:00,48.0,47.0,-100.00,West,268,1.0,3.0,97,0.00,,,0.23,0.000000,,2013-03-18 15:22:00,
2013-03-18 05:33:00,48.0,47.0,-100.00,West,268,1.0,3.0,97,0.00,,,0.23,0.000000,,2013-03-18 15:33:00,
2013-03-18 05:52:00,50.0,49.0,-100.00,North,9,0.0,7.0,97,0.00,,,0.22,0.000000,,2013-03-18 15:52:00,
2013-03-18 06:02:00,50.0,49.0,-100.00,North,9,0.0,7.0,97,0.00,,,0.22,0.000000,,2013-03-18 16:02:00,
2013-03-18 06:12:00,50.0,49.0,-100.00,North,9,0.0,7.0,97,0.00,,,0.22,0.000000,,2013-03-18 16:12:00,
2013-03-18 06:22:00,50.0,49.0,-100.00,North,9,0.0,7.0,97,0.00,,,0.22,0.000000,,2013-03-18 16:22:00,
2013-03-18 06:32:00,50.0,49.0,-100.00,North,9,0.0,7.0,97,0.00,,,0.22,0.000000,,2013-03-18 16:32:00,
2013-03-18 06:52:00,49.0,48.0,-100.00,WSW,247,0.0,1.0,96,0.00,,,0.21,0.000000,,2013-03-18 16:52:00,
2013-03-18 07:02:00,49.0,48.0,-100.00,WSW,247,0.0,1.0,96,0.00,,,0.21,0.000000,,2013-03-18 17:02:00,
2013-03-18 07:12:00,49.0,48.0,-100.00,WSW,247,0.0,1.0,96,0.00,,,0.21,0.000000,,2013-03-18 17:12:00,
2013-03-18 07:22:00,49.0,48.0,-100.00,WSW,247,0.0,1.0,96,0.00,,,0.21,0.000000,,2013-03-18 17:22:00,
2013-03-18 07:32:00,49.0,48.0,-100.00,WSW,247,0.0,1.0,96,0.00,,,0.21,0.000000,,2013-03-18 17:32:00,
2013-03-18 08:02:00,51.0,50.0,-100.00,SE,132,0.0,3.0,97,0.01,,,0.18,56.000000,,2013-03-18 18:02:00,
2013-03-18 08:12:00,51.0,50.0,-100.00,SE,132,0.0,3.0,97,0.01,,,0.18,56.000000,,2013-03-18 18:12:00,
2013-03-18 08:22:00,51.0,50.0,-100.00,SE,132,0.0,3.0,97,0.01,,,0.18,56.000000,,2013-03-18 18:22:00,
2013-03-18 08:32:00,51.0,50.0,-100.00,SE,132,0.0,3.0,97,0.01,,,0.18,56.000000,,2013-03-18 18:32:00,
2013-03-18 09:02:00,58.0,55.0,-100.00,SSW,200,2.0,4.0,90,0.00,,,0.13,277.000000,,2013-03-18 19:02:00,
2013-03-18 09:12:00,58.0,55.0,-100.00,SSW,200,2.0,4.0,90,0.00,,,0.13,277.000000,,2013-03-18 19:12:00,
2013-03-18 09:22:00,58.0,55.0,-100.00,SSW,200,2.0,4.0,90,0.00,,,0.13,277.000000,,2013-03-18 19:22:00,
2013-03-18 09:32:00,58.0,55.0,-100.00,SSW,200,2.0,4.0,90,0.00,,,0.13,277.000000,,2013-03-18 19:32:00,
2013-03-18 09:52:00,63.0,56.0,-100.00,South,180,2.0,9.0,77,0.00,,,-99.99,600.000000,,2013-03-18 19:52:00,
2013-03-18 10:02:00,63.0,56.0,-100.00,South,180,2.0,9.0,77,0.00,,,-99.99,600.000000,,2013-03-18 20:02:00,
2013-03-18 10:12:00,63.0,56.0,-100.00,South,180,2.0,9.0,77,0.00,,,-99.99,600.000000,,2013-03-18 20:12:00,
2013-03-18 10:22:00,63.0,56.0,-100.00,South,180,2.0,9.0,77,0.00,,,-99.99,600.000000,,2013-03-18 20:22:00,
2013-03-18 10:32:00,63.0,56.0,-100.00,South,180,2.0,9.0,77,0.00,,,-99.99,600.000000,,2013-03-18 20:32:00,
2013-03-18 11:02:00,58.0,57.0,-100.00,SSE,157,3.0,9.0,96,0.00,,,0.13,389.000000,,2013-03-18 21:02:00,
2013-03-18 11:11:00,58.0,57.0,-100.00,SSE,157,3.0,9.0,96,0.00,,,0.13,389.000000,,2013-03-18 21:11:00,
2013-03-18 11:22:00,58.0,57.0,-100.00,SSE,157,3.0,9.0,96,0.00,,,0.13,389.000000,,2013-03-18 21:22:00,
2013-03-18 11:32:00,58.0,57.0,-100.00,SSE,157,3.0,9.0,96,0.00,,,0.13,389.000000,,2013-03-18 21:32:00,
2013-03-18 12:03:00,61.0,56.0,-100.00,SSE,148,4.0,10.0,85,0.00,,,0.13,438.000000,,2013-03-18 22:03:00,
2013-03-18 12:12:00,61.0,56.0,-100.00,SSE,148,4.0,10.0,85,0.00,,,0.13,438.000000,,2013-03-18 22:12:00,
2013-03-18 12:22:00,61.0,56.0,-100.00,SSE,148,4.0,10.0,85,0.00,,,0.13,438.000000,,2013-03-18 22:22:00,
2013-03-18 12:32:00,61.0,56.0,-100.00,SSE,148,4.0,10.0,85,0.00,,,0.13,438.000000,,2013-03-18 22:32:00,
2013-03-18 13:02:00,62.0,55.0,-100.00,SSE,168,6.0,12.0,77,0.00,,,0.12,597.000000,,2013-03-18 23:02:00,
2013-03-18 13:12:00,62.0,55.0,-100.00,SSE,168,6.0,12.0,77,0.00,,,0.12,597.000000,,2013-03-18 23:12:00,
2013-03-18 13:22:00,62.0,55.0,-100.00,SSE,168,6.0,12.0,77,0.00,,,0.12,597.000000,,2013-03-18 23:22:00,
2013-03-18 13:32:00,62.0,55.0,-100.00,SSE,168,6.0,12.0,77,0.00,,,0.12,597.000000,,2013-03-18 23:32:00,
2013-03-18 14:02:00,61.0,54.0,-100.00,SSW,202,9.0,11.0,79,0.00,,,0.11,352.000000,,2013-03-19 00:02:00,
2013-03-18 14:12:00,61.0,54.0,-100.00,SSW,202,9.0,11.0,79,0.00,,,0.11,352.000000,,2013-03-19 00:12:00,
2013-03-18 14:22:00,61.0,54.0,-100.00,SSW,202,9.0,11.0,79,0.00,,,0.11,352.000000,,2013-03-19 00:22:00,
2013-03-18 14:32:00,61.0,54.0,-100.00,SSW,202,9.0,11.0,79,0.00,,,0.11,352.000000,,2013-03-19 00:32:00,
2013-03-18 14:52:00,61.0,55.0,-100.00,South,170,6.0,16.0,80,0.00,,,0.11,362.000000,,2013-03-19 00:52:00,
2013-03-18 15:02:00,61.0,55.0,-100.00,South,170,6.0,16.0,80,0.00,,,0.11,362.000000,,2013-03-19 01:02:00,
2013-03-18 15:12:00,61.0,55.0,-100.00,South,170,6.0,16.0,80,0.00,,,0.11,362.000000,,2013-03-19 01:12:00,
2013-03-18 15:22:00,61.0,55.0,-100.00,South,170,6.0,16.0,80,0.00,,,0.11,362.000000,,2013-03-19 01:22:00,
2013-03-18 15:32:00,61.0,55.0,-100.00,South,170,6.0,16.0,80,0.00,,,0.11,362.000000,,2013-03-19 01:32:00,
2013-03-18 16:02:00,54.0,54.0,-100.00,South,176,4.0,16.0,99,0.00,,,0.10,82.000000,,2013-03-19 02:02:00,
2013-03-18 16:12:00,54.0,54.0,-100.00,South,176,4.0,16.0,99,0.00,,,0.10,82.000000,,2013-03-19 02:12:00,
2013-03-18 16:22:00,54.0,54.0,-100.00,South,176,4.0,16.0,99,0.00,,,0.10,82.000000,,2013-03-19 02:22:00,
2013-03-18 16:32:00,54.0,54.0,-100.00,South,176,4.0,16.0,99,0.00,,,0.10,82.000000,,2013-03-19 02:32:00,
2013-03-18 17:02:00,52.0,52.0,-100.00,SSE,161,4.0,11.0,100,0.03,,,0.10,34.000000,,2013-03-19 03:02:00,
2013-03-18 17:12:00,52.0,52.0,-100.00,SSE,161,4.0,11.0,100,0.03,,,0.10,34.000000,,2013-03-19 03:12:00,
2013-03-18 17:22:00,52.0,52.0,-100.00,SSE,161,4.0,11.0,100,0.03,,,0.10,34.000000,,2013-03-19 03:22:00,
2013-03-18 17:32:00,52.0,52.0,-100.00,SSE,161,4.0,11.0,100,0.03,,,0.10,34.000000,,2013-03-19 03:32:00,
2013-03-18 18:03:00,52.0,52.0,-100.00,SSE,160,3.0,11.0,100,0.00,,,0.07,40.000000,,2013-03-19 04:03:00,
2013-03-18 18:13:00,52.0,52.0,-100.00,SSE,160,3.0,11.0,100,0.00,,,0.07,40.000000,,2013-03-19 04:13:00,
2013-03-18 18:22:00,52.0,52.0,-100.00,SSE,160,3.0,11.0,100,0.00,,,0.07,40.000000,,2013-03-19 04:22:00,
2013-03-18 18:32:00,52.0,52.0,-100.00,SSE,160,3.0,11.0,100,0.00,,,0.07,40.000000,,2013-03-19 04:32:00,
2013-03-18 19:02:00,52.0,52.0,-100.00,SSE,168,2.0,11.0,100,0.01,,,0.07,3.000000,,2013-03-19 05:02:00,
2013-03-18 19:12:00,52.0,52.0,-100.00,SSE,168,2.0,11.0,100,0.01,,,0.07,3.000000,,2013-03-19 05:12:00,
2013-03-18 19:22:00,52.0,52.0,-100.00,SSE,168,2.0,11.0,100,0.01,,,0.07,3.000000,,2013-03-19 05:22:00,
2013-03-18 19:32:00,52.0,52.0,-100.00,SSE,168,2.0,11.0,100,0.01,,,0.07,3.000000,,2013-03-19 05:32:00,
2013-03-18 20:02:00,50.0,50.0,-100.00,ENE,74,1.0,7.0,100,0.01,,,0.08,0.000000,,2013-03-19 06:02:00,
2013-03-18 20:12:00,50.0,50.0,-100.00,ENE,74,1.0,7.0,100,0.01,,,0.08,0.000000,,2013-03-19 06:12:00,
2013-03-18 20:22:00,50.0,50.0,-100.00,ENE,74,1.0,7.0,100,0.01,,,0.08,0.000000,,2013-03-19 06:22:00,
2013-03-18 20:32:00,50.0,50.0,-100.00,ENE,74,1.0,7.0,100,0.01,,,0.08,0.000000,,2013-03-19 06:32:00,
2013-03-18 21:02:00,51.0,51.0,-100.00,NNE,24,0.0,4.0,99,0.00,,,0.07,0.000000,,2013-03-19 07:02:00,
2013-03-18 21:12:00,51.0,51.0,-100.00,NNE,24,0.0,4.0,99,0.00,,,0.07,0.000000,,2013-03-19 07:12:00,
2013-03-18 21:21:00,51.0,51.0,-100.00,NNE,24,0.0,4.0,99,0.00,,,0.07,0.000000,,2013-03-19 07:21:00,
2013-03-18 21:32:00,51.0,51.0,-100.00,NNE,24,0.0,4.0,99,0.00,,,0.07,0.000000,,2013-03-19 07:32:00,
2013-03-18 22:02:00,44.0,44.0,-100.00,WNW,293,1.0,5.0,99,0.00,,,0.07,0.000000,,2013-03-19 08:02:00,
2013-03-18 22:12:00,44.0,44.0,-100.00,WNW,293,1.0,5.0,99,0.00,,,0.07,0.000000,,2013-03-19 08:12:00,
2013-03-18 22:22:00,44.0,44.0,-100.00,WNW,293,1.0,5.0,99,0.00,,,0.07,0.000000,,2013-03-19 08:22:00,
2013-03-18 22:32:00,44.0,44.0,-100.00,WNW,293,1.0,5.0,99,0.00,,,0.07,0.000000,,2013-03-19 08:32:00,
2013-03-18 23:02:00,42.0,42.0,-100.00,WNW,293,2.0,6.0,99,0.00,,,0.07,0.000000,,2013-03-19 09:02:00,
2013-03-18 23:12:00,42.0,42.0,-100.00,WNW,293,2.0,6.0,99,0.00,,,0.07,0.000000,,2013-03-19 09:12:00,
2013-03-18 23:22:00,42.0,42.0,-100.00,WNW,293,2.0,6.0,99,0.00,,,0.07,0.000000,,2013-03-19 09:22:00,
2013-03-18 23:32:00,42.0,42.0,-100.00,WNW,293,2.0,6.0,99,0.00,,,0.07,0.000000,,2013-03-19 09:32:00,